Temperature
16 16 16 16 16 16 16 16 16 17 17 17 16 16 16 15 15 16 15 16 16 16 16 16 16 16 16 16 16 16 16 16 15 15 15 15 15 15
16 16 16 16 16 16 16 16 16 16 16 17 16 16 15 15 15 15 15 15 16 16 16 16 16 16 16 16 16 15 15 15 15 15 15 15 15 15
16 16 16 16 15 15 15 15 15 15 16 16 16 15 15 15 15 15 15 15 15 15 16 16 16 15 15 15 15 15 15 15 15 15 15 15 15 15
15 15 15 15 15 15 15 15 15 15 15 15 15 15 15 14 15 15 15 15 15 15 15 15 15 15 15 15 15 15 15 15 15 15 15 15 15 14
15 15 15 15 15 14 14 15 15 15 14 15 15 15 15 14 14 14 14 14 14 15 15 15 15 15 15 15 15 15 15 15 15 14 14 14 14 14
15 14 14 14 14 14 14 14 14 14 14 14 15 15 15 14 14 14 14 14 14 14 14 14 14 14 15 15 14 14 14 14 14 14 14 14 14 14
14 14 14 14 14 14 14 14 14 14 14 14 14 14 14 14 14 14 14 14 14 14 14 14 14 14 14 14 14 14 14 14 14 14 14 14 13 13
14 14 14 14 14 14 14 14 14 13 13 14 14 14 13 14 13 14 14 14 14 14 14 14 14 14 14 14 14 14 14 14 13 13 14 13 13 13
14 14 14 14 14 13 13 13 13 13 13 13 13 13 13 13 13 13 13 13 13 14 13 14 14 14 14 14 14 14 13 13 13 13 13 13 13 13
13 13 13 13 13 13 13 13 13 13 13 13 13 13 13 13 13 13 13 13 13 13 13 13 14 14 14 13 13 13 13 13 13 13 13 13 12 12
13 13 13 13 13 13 13 12 12 12 13 13 13 13 13 13 12 12 12 13 13 13 13 13 13 13 13 13 13 13 13 13 13 12 12 12 12 12
13 13 13 13 13 13 12 12 12 12 12 12 12 12 12 12 12 12 12 12 13 13 13 13 13 13 13 13 13 12 12 12 12 12 12 12 12 11
13 13 13 13 13 13 12 12 12 12 12 12 12 12 12 12 12 12 12 12 12 12 12 12 12 12 12 13 12 12 12 12 12 12 12 11 11 11
12 13 12 12 12 12 12 12 12 12 12 12 12 12 12 12 12 12 12 12 12 12 12 12 12 12 12 12 12 12 12 12 12 11 11 11 11 11
12 12 12 12 12 12 12 12 12 11 11 12 12 12 12 12 11 11 11 12 12 11 11 11 11 11 11 12 12 12 11 11 11 11 11 11 11 10
12 12 12 12 12 12 12 12 11 11 11 11 11 11 11 11 11 11 11 11 11 11 11 11 11 11 11 11 11 11 11 11 11 11 11 10 10 10
12 12 12 12 12 11 11 11 11 11 11 11 11 11 11 11 11 11 11 11 11 11 11 11 11 10 10 11 11 11 11 11 11 10 10 10 10 10
11 11 11 11 11 11 11 11 11 11 11 11 11 11 11 11 11 11 11 11 11 11 11 11 10 10 10 11 11 11 11 10 10 10 10 10 10 10
11 11 11 11 11 11 11 11 11 11 11 10 10 11 11 11 11 10 10 10 10 10 10 10 10 10 11 11 10 10 10 10 10 10 10 10 10 10
11 11 11 11 11 11 11 11 10 10 10 10 10 10 10 10 10 10 10 10 10 10 10 10 10 10 10 10 10 10 10 9 9 9 9 9 9 9
11 10 10 10 10 10 10 10 10 10 10 10 10 10 10 10 10 10 10 10 10 10 10 10 10 10 10 10 10 10 9 9 9 9 9 9 9 9
10 10 10 10 10 10 10 10 10 10 10 10 10 10 10 10 10 10 10 10 10 10 10 10 9 9 10 10 10 9 9 9 9 9 9 9 9 8
10 10 10 10 10 9 9 9 9 10 9 9 9 9 9 9 9 9 10 10 9 9 9 9 9 9 9 9 9 9 9 9 9 8 8 8 8 8
Wind_Speed
4 4 4 4 4 4 4 5 5 6 5 3 3 3 4 4 3 6 6 5 7 8 8 8 8 8 8 9 10 11 11 11 11 11 11 11 11 12
4 4 5 4 4 4 4 5 5 6 6 4 4 4 4 5 4 6 6 6 7 8 8 8 9 9 8 8 10 11 11 11 12 11 11 11 11 12
4 4 5 5 5 5 4 5 5 5 7 6 5 3 4 6 5 6 7 7 6 8 8 9 9 8 9 9 9 9 10 11 11 11 11 11 11 11
5 5 5 4 5 5 5 5 5 5 7 8 6 5 5 5 5 6 6 6 6 6 8 8 8 8 8 9 8 8 9 10 10 10 10 10 11 11
5 5 5 5 5 4 5 5 5 6 6 7 7 5 5 4 4 5 6 5 6 4 7 8 8 8 8 8 8 8 8 8 9 9 9 10 10 11
5 5 5 5 5 5 5 5 5 6 6 6 6 6 5 4 4 5 5 4 5 5 4 5 7 9 9 9 9 8 8 8 8 9 9 10 10 11
5 5 5 4 4 5 5 4 5 6 6 6 6 5 5 4 5 5 5 5 5 5 5 5 5 5 6 9 9 8 8 8 8 9 9 10 10 10
6 6 5 5 5 6 6 7 7 7 7 7 6 6 6 6 5 6 6 6 5 3 5 6 5 5 5 4 5 7 8 8 9 9 9 9 9 9
6 5 5 4 4 5 6 9 9 9 9 8 8 8 8 6 6 7 6 7 7 5 5 6 5 5 5 3 6 8 8 9 9 9 9 9 9 9
6 5 5 5 5 6 7 6 7 6 7 8 7 8 8 6 7 8 8 8 8 6 5 6 5 5 4 3 7 9 9 9 9 9 9 9 9 10
6 6 6 6 4 6 7 7 7 6 6 7 7 8 7 7 7 7 7 7 7 6 4 5 5 5 5 5 5 10 10 10 10 10 10 10 9 9
5 5 5 6 5 6 7 7 7 7 7 6 7 9 9 9 10 9 8 7 7 6 3 4 5 4 4 4 4 4 6 8 10 10 10 10 9 7
5 5 4 4 5 7 8 7 7 8 8 8 7 7 7 6 7 7 7 7 7 6 4 4 5 5 5 5 4 3 3 3 4 6 9 10 9 7
6 5 3 2 6 7 7 6 8 8 7 6 6 6 6 5 5 6 6 7 7 8 6 5 6 6 6 6 4 3 3 3 3 3 3 7 9 9
6 5 6 6 7 7 8 9 9 7 7 7 7 6 6 5 4 4 5 6 7 7 6 6 7 6 6 6 5 4 3 3 3 3 3 4 4 4
6 5 8 9 8 6 6 6 6 6 6 6 6 6 5 4 4 5 5 5 5 5 5 6 6 6 7 6 6 5 4 3 3 3 3 3 4 4
5 5 5 4 5 5 5 4 5 5 5 6 6 5 5 5 5 5 4 5 5 5 4 4 5 5 6 6 5 4 4 3 3 2 3 3 3 3
6 5 5 5 5 5 5 4 4 4 4 5 5 5 5 5 5 4 4 5 5 5 4 4 3 4 5 3 3 4 4 3 2 2 4 4 4 3
6 6 5 5 5 5 5 5 4 4 4 4 5 5 5 5 5 4 4 5 5 4 4 3 4 4 5 5 2 3 3 3 2 3 3 4 4 3
5 5 5 5 5 5 5 5 4 4 3 4 4 5 4 4 5 4 4 5 4 4 4 4 4 5 5 4 2 2 2 2 2 3 3 3 2 0
5 5 5 5 5 5 4 4 4 4 4 4 4 5 5 5 5 5 4 4 5 5 4 4 3 4 5 3 2 2 1 1 0 2 3 3 3 2
5 5 5 5 5 5 5 4 4 4 4 4 4 4 4 4 5 5 5 4 4 4 4 3 2 3 3 3 3 2 1 1 3 4 3 2 2 3
5 5 5 5 5 4 4 5 5 4 4 4 4 4 4 4 4 4 5 4 4 3 3 2 2 2 2 2 2 2 2 2 1 1 2 5 5 5
Wind_Direction
268 260 266 270 266 270 270 269 274 279 278 259 262 256 262 259 262 261 263 234 229 239 244 248 249 250 253 250 242 234 228 225 219 219 220 224 229 229
267 273 273 273 272 269 269 268 268 274 280 285 280 287 292 281 248 261 260 231 227 230 237 242 246 247 248 248 241 231 226 223 220 217 218 222 226 225
261 256 260 273 274 272 267 265 264 267 271 281 274 273 278 281 280 271 262 259 243 210 224 235 243 245 247 243 239 232 227 225 224 220 219 223 226 224
259 260 262 261 263 271 273 271 271 268 269 279 282 272 265 267 273 275 272 267 261 197 205 224 233 239 241 238 233 231 227 224 221 219 217 221 225 228
257 257 259 260 261 266 266 268 270 265 263 270 275 277 272 270 274 272 272 274 267 220 200 206 218 228 231 229 225 224 223 219 215 215 219 224 228 230
260 259 259 254 255 261 259 261 268 271 269 267 272 273 267 262 263 271 276 268 270 270 253 233 214 216 220 221 219 219 219 218 219 218 220 226 229 231
260 261 256 251 267 267 273 274 272 271 272 270 272 274 278 275 269 272 275 275 261 264 268 259 239 239 220 212 209 212 216 217 220 223 224 225 226 229
259 259 253 237 241 244 261 273 275 268 274 278 277 278 276 276 279 274 277 279 276 263 267 268 259 255 246 230 188 194 208 217 222 224 224 226 226 227
259 261 266 260 247 254 245 243 246 249 255 266 276 279 279 278 276 272 273 275 279 278 269 269 259 254 247 219 170 190 204 214 220 222 225 227 229 229
255 252 259 269 265 268 261 256 255 253 251 254 265 271 276 279 269 268 271 267 264 260 260 267 265 265 265 240 177 191 206 215 221 225 225 226 229 231
255 252 254 256 262 269 259 260 265 263 246 239 254 262 272 267 268 268 265 267 270 263 249 265 275 278 267 245 198 192 208 210 212 216 219 221 224 230
255 250 245 249 249 252 258 263 265 271 273 259 245 243 246 242 237 252 261 263 271 269 248 258 270 277 273 253 246 221 215 205 205 209 210 211 212 230
270 266 259 220 236 244 257 265 273 281 273 262 255 249 244 246 243 243 253 262 267 267 264 254 267 265 265 271 266 256 243 238 221 214 205 200 205 223
276 278 285 238 245 245 249 262 269 270 268 264 261 257 255 255 256 257 253 255 262 266 269 269 270 267 268 271 270 263 251 242 238 234 225 195 202 213
279 287 274 251 252 242 230 238 246 256 262 264 264 264 267 270 269 259 254 252 252 254 253 256 266 269 264 266 267 266 269 255 233 232 227 218 219 220
273 263 238 235 244 253 249 238 246 253 259 262 268 270 266 259 257 263 263 258 252 245 241 249 257 261 266 266 263 263 261 255 243 244 241 235 231 229
284 274 275 270 262 257 255 255 252 250 253 262 268 269 264 261 263 263 263 261 259 259 256 244 239 241 256 268 262 260 259 256 246 246 256 254 246 235
275 274 273 270 268 267 262 254 249 251 256 260 264 263 265 262 262 264 261 260 260 258 264 265 253 249 249 254 248 252 253 256 254 242 255 255 253 245
264 273 275 274 274 275 273 267 261 256 259 261 263 268 267 265 264 263 261 261 263 264 261 263 260 254 259 263 242 228 259 259 251 253 258 264 260 253
276 281 282 278 278 277 276 276 276 269 264 270 271 269 265 264 265 264 261 262 262 259 254 253 255 259 269 276 277 266 218 251 256 256 262 271 279 207
281 279 281 281 281 283 282 278 278 277 274 270 272 274 267 259 258 261 261 249 254 256 251 256 272 274 270 248 235 241 191 125 40 265 266 262 260 256
282 282 283 283 279 281 281 276 271 271 273 271 275 274 272 267 260 257 259 253 246 250 256 263 237 255 253 242 237 231 226 144 97 85 54 353 277 266
280 281 278 278 276 276 280 281 277 274 275 279 279 279 277 273 270 266 258 253 250 246 248 260 263 261 256 236 228 213 201 195 180 101 68 66 96 108
Height
1523 1522 1522 1522 1521 1521 1521 1520 1520 1518 1517 1517 1517 1516 1515 1515 1514 1513 1512 1511 1511 1511 1510 1510 1510 1510 1509 1509 1509 1510 1511 1511 1512 1513 1514 1515 1515 1516
1519 1518 1518 1519 1518 1518 1517 1517 1517 1516 1515 1514 1514 1513 1512 1512 1511 1510 1509 1508 1507 1507 1506 1506 1506 1506 1506 1505 1505 1506 1506 1507 1508 1509 1509 1510 1511 1512
1516 1516 1515 1515 1515 1515 1514 1513 1513 1513 1512 1511 1511 1510 1508 1508 1507 1506 1505 1504 1504 1502 1502 1502 1502 1502 1502 1501 1501 1501 1501 1502 1503 1504 1505 1506 1507 1508
1514 1513 1512 1512 1511 1511 1510 1510 1510 1509 1509 1508 1507 1507 1505 1504 1503 1502 1502 1502 1500 1499 1498 1498 1497 1497 1497 1497 1497 1497 1497 1497 1498 1499 1501 1502 1503 1504
1511 1510 1509 1508 1507 1508 1507 1507 1507 1506 1505 1505 1504 1503 1502 1502 1500 1500 1499 1498 1498 1496 1495 1494 1493 1493 1493 1493 1493 1493 1493 1493 1494 1495 1496 1497 1498 1499
1508 1507 1506 1505 1504 1504 1504 1503 1503 1502 1502 1501 1501 1500 1499 1498 1497 1497 1496 1495 1494 1494 1493 1491 1490 1489 1489 1489 1489 1489 1489 1489 1490 1490 1491 1492 1493 1494
1505 1504 1503 1501 1501 1500 1501 1500 1499 1499 1499 1498 1497 1496 1496 1495 1494 1493 1492 1492 1491 1490 1489 1489 1488 1487 1486 1485 1484 1484 1485 1485 1485 1486 1486 1487 1488 1489
1501 1500 1500 1498 1497 1496 1496 1495 1495 1495 1495 1494 1494 1493 1492 1491 1490 1490 1489 1488 1487 1487 1486 1485 1485 1484 1483 1482 1481 1480 1480 1480 1481 1481 1482 1482 1483 1484
1497 1496 1496 1496 1494 1493 1492 1491 1491 1490 1490 1490 1489 1489 1488 1487 1486 1486 1485 1485 1484 1483 1482 1482 1481 1480 1479 1478 1477 1477 1476 1476 1476 1477 1477 1477 1478 1479
1494 1493 1492 1491 1490 1489 1488 1488 1487 1486 1485 1485 1484 1484 1484 1483 1482 1482 1481 1480 1479 1479 1479 1478 1478 1477 1476 1475 1473 1473 1473 1472 1472 1472 1472 1473 1473 1474
1490 1489 1488 1487 1486 1485 1484 1483 1482 1482 1481 1480 1479 1479 1478 1478 1477 1478 1477 1477 1476 1476 1475 1475 1474 1473 1472 1471 1470 1469 1469 1468 1468 1468 1468 1469 1469 1470
1486 1485 1484 1483 1482 1481 1480 1479 1478 1477 1477 1476 1475 1474 1474 1473 1473 1473 1473 1473 1472 1472 1471 1471 1470 1470 1468 1468 1467 1466 1465 1464 1464 1464 1464 1465 1465 1466
1483 1482 1480 1479 1478 1477 1476 1475 1473 1473 1472 1471 1471 1470 1470 1469 1469 1468 1468 1468 1468 1468 1468 1467 1466 1466 1466 1464 1463 1463 1462 1461 1461 1460 1460 1460 1461 1461
1479 1478 1477 1475 1473 1472 1471 1470 1470 1469 1469 1468 1467 1467 1466 1465 1465 1464 1463 1463 1462 1463 1462 1462 1462 1462 1461 1460 1459 1458 1458 1457 1457 1457 1457 1457 1457 1457
1474 1473 1472 1470 1469 1468 1467 1466 1466 1465 1465 1464 1463 1463 1462 1461 1460 1460 1459 1458 1458 1457 1457 1457 1457 1457 1457 1457 1456 1455 1454 1454 1453 1453 1453 1453 1453 1454
1470 1469 1467 1466 1465 1463 1463 1462 1462 1461 1460 1460 1459 1459 1458 1457 1456 1456 1455 1454 1454 1453 1453 1452 1452 1453 1453 1452 1452 1451 1451 1450 1450 1450 1450 1450 1450 1450
1466 1465 1463 1462 1461 1460 1459 1458 1458 1457 1456 1455 1455 1454 1454 1453 1452 1451 1451 1450 1450 1449 1449 1449 1449 1449 1448 1448 1448 1447 1447 1447 1446 1446 1446 1446 1446 1446
1462 1461 1460 1458 1457 1456 1455 1454 1454 1453 1452 1451 1450 1450 1449 1448 1448 1447 1447 1446 1445 1445 1445 1445 1445 1445 1445 1445 1444 1443 1443 1443 1443 1443 1443 1443 1443 1443
1459 1458 1456 1455 1454 1453 1452 1451 1450 1449 1448 1447 1447 1446 1445 1444 1444 1443 1443 1442 1442 1442 1441 1441 1441 1442 1442 1441 1440 1440 1440 1440 1440 1440 1440 1440 1440 1440
1455 1454 1453 1452 1450 1449 1448 1447 1446 1445 1444 1443 1443 1442 1441 1441 1440 1440 1439 1439 1438 1438 1438 1438 1438 1438 1438 1438 1437 1436 1436 1437 1437 1437 1437 1437 1437 1437
1452 1451 1450 1448 1447 1445 1444 1443 1442 1441 1440 1440 1439 1438 1438 1437 1436 1436 1436 1435 1435 1435 1435 1435 1435 1435 1435 1435 1434 1434 1434 1434 1434 1435 1435 1434 1434 1434
1449 1448 1447 1445 1444 1442 1441 1440 1439 1438 1437 1436 1435 1435 1434 1434 1433 1433 1433 1433 1432 1433 1432 1432 1432 1432 1432 1432 1432 1432 1432 1432 1432 1432 1432 1432 1432 1431
1446 1444 1443 1442 1440 1439 1438 1436 1436 1435 1433 1433 1432 1431 1430 1430 1430 1430 1430 1430 1430 1430 1430 1430 1430 1429 1429 1429 1430 1430 1430 1430 1430 1430 1431 1430 1430 1430